Starlink 11190

operational
NORAD ID: 60911 Int'l Des: 2024-154 Owner: SPXS Country: US Constellation: starlink
LEOCIRCULAR

关于 Starlink 11190

正在加载描述...

实时位置

正在加载3D地球...

即将过境

高度历史

Altitude vs Time

uPlot chart will show altitude changes over time

两行轨道根数

1 60911U 24154J 25304.62947422 -.00003572 00000-0 -24689-4 0 9995
2 60911 53.1578 47.5097 0000725 87.6171 272.4929 15.69671150 68239
Epoch: Oct 31, 2025 • Age: 28 hours

当前状态

高度 360.0 km
速度 7.70 km/s
星下点 18.31°N, 123.07°W
发射日期 Aug 31, 2024
运行时间 1.1 years
类型 internet

技术详情

分类 Payload
质量 960.00 kg
干质量 910.00 kg
总质量 960.00 kg
长度 0.30 m
直径 4.10 m
跨度 29.00 m
形状 Box + pan
制造商 SPXS
平台类型 Starlink V2MD
阶段状态 In Orbit
所有者/国家 SPXS/US

大型星座

Loading constellations...